Tekamah, NE

5:10 AM CDT on March 27, 2017 (GMT -0500)
Tekamah

Weather History for KTQE - October, 2010

Change the Weather History Date:

Wednesday, October 13, 2010

  Actual Average Record
Temperature  
Mean Temperature 54 °F -  
Max Temperature 70 °F 66 °F 93 °F (1975)
Min Temperature 37 °F 42 °F 25 °F (1979)
Degree Days  
Heating Degree Days 11    
Growing Degree Days 4 (Base 50)    
Moisture  
Dew Point 32 °F    
Average Humidity 52    
Maximum Humidity 83    
Minimum Humidity 18    
Precipitation  
Precipitation 0.00 in - - ()
Sea Level Pressure  
Sea Level Pressure 30.29 in    
Wind  
Wind Speed 7 mph (NW)    
Max Wind Speed 18 mph    
Max Gust Speed 25 mph    
Visibility 10 miles    
Events      
Averages and records for this station are not official NWS values.
T = Trace of Precipitation, MM = Missing Value Source: NWS Daily Summary

Daily Weather History Graph

Daily Weather History Graph

Search for Another Location

Airport or City:

Trip Planner

Search our weather history database for the weather conditions in past years. The results will help you decide how hot, cold, wet, or windy it might be!

Date:

Astronomy

Oct. 13, 2010 Rise Set
Actual Time 7:34 AM CDT 6:46 PM CDT
Civil Twilight 7:06 AM CDT 7:14 PM CDT
Nautical Twilight 6:34 AM CDT 7:46 PM CDT
Astronomical Twilight 6:02 AM CDT 8:18 PM CDT
Moon 1:59 PM CDT (10/13) 11:22 PM CDT (10/13)
Length of Visible Light 12h 07m
Length of Day
11h 11m
Waxing Crescent, 38% of the Moon is Illuminated
Oct 13
Waxing Crescent
Oct 14
First Quarter
Oct 22
Full
Oct 30
Last Quarter
Nov 5
New

Hourly Weather History & Observations

Time (CDT) Temp. Windchill Dew Point Humidity Pressure Visibility Wind Dir Wind Speed Gust Speed Precip Events Conditions
12:54 AM 51.1 °F - 37.9 °F 61% 30.24 in 10.0 mi NW 8.1 mph - N/A   Clear
1:54 AM 46.9 °F - 37.0 °F 68% 30.25 in 10.0 mi NW 6.9 mph - N/A   Clear
2:54 AM 45.0 °F 43.5 °F 36.0 °F 71% 30.27 in 10.0 mi NNW 3.5 mph - N/A   Clear
3:54 AM 44.1 °F 39.0 °F 36.0 °F 73% 30.27 in 10.0 mi NNW 9.2 mph - N/A   Clear
4:54 AM 45.0 °F 41.2 °F 36.0 °F 71% 30.27 in 10.0 mi NW 6.9 mph - N/A   Clear
5:54 AM 39.9 °F 36.7 °F 34.0 °F 79% 30.30 in 10.0 mi WNW 4.6 mph - N/A   Clear
6:54 AM 43.0 °F 40.3 °F 36.0 °F 76% 30.31 in 10.0 mi NW 4.6 mph - N/A   Clear
7:54 AM 39.9 °F 36.7 °F 35.1 °F 83% 30.33 in 10.0 mi NNW 4.6 mph - N/A   Clear
8:54 AM 46.9 °F - 37.9 °F 71% 30.34 in 10.0 mi North 3.5 mph - N/A   Clear
9:54 AM 54.0 °F - 39.0 °F 57% 30.35 in 10.0 mi NNW 4.6 mph - N/A   Clear
10:54 AM 60.1 °F - 39.0 °F 46% 30.34 in 10.0 mi WNW 8.1 mph - N/A   Clear
11:54 AM 63.0 °F - 37.9 °F 40% 30.34 in 10.0 mi NNW 6.9 mph - N/A   Clear
12:54 PM 66.9 °F - 32.0 °F 27% 30.32 in 10.0 mi NW 13.8 mph - N/A   Clear
1:54 PM 69.1 °F - 26.1 °F 20% 30.30 in 10.0 mi North 15.0 mph 24.2 mph N/A   Clear
2:54 PM 69.1 °F - 26.1 °F 20% 30.28 in 10.0 mi NNW 17.3 mph - N/A   Clear
3:54 PM 69.1 °F - 23.0 °F 18% 30.27 in 10.0 mi NW 13.8 mph 25.3 mph N/A   Clear
4:54 PM 68.0 °F - 24.1 °F 19% 30.27 in 10.0 mi NW 18.4 mph 25.3 mph N/A   Clear
5:54 PM 66.0 °F - 25.0 °F 21% 30.26 in 10.0 mi NNW 12.7 mph - N/A   Clear
6:54 PM 55.0 °F - 25.0 °F 31% 30.27 in 10.0 mi NW 6.9 mph - N/A   Clear
7:54 PM 51.1 °F - 30.9 °F 46% 30.29 in 10.0 mi WNW 5.8 mph - N/A   Clear
8:54 PM 46.0 °F - 32.0 °F 58% 30.29 in 10.0 mi Calm Calm - N/A   Clear
9:54 PM 43.0 °F 41.3 °F 30.9 °F 62% 30.28 in 10.0 mi WNW 3.5 mph - N/A   Clear
10:54 PM 42.1 °F - 30.9 °F 65% 30.29 in 10.0 mi Calm Calm - N/A   Clear
11:54 PM 37.0 °F 33.3 °F 28.9 °F 73% 30.27 in 10.0 mi SSE 4.6 mph - N/A   Clear